This demonstration page uses our WeatherBlox Daily Observations layout. Learn more.

41.55636, -103.73856

Hourly Observations for May 11, 2015

Temp ( °F °C ) Dew Point ( °F °C ) Humidity (%) Winds ( mph kmh ) Pressure ( in mb ) Visibility ( mi km ) Precip ( " mm )
12:53 am 00:53 Clear 32 0 27 -2.8 82 82 WNW 15 24 30.17 1022 10 16.0934 0 0
1:53 am 01:53 Clear 32 0 26 -3.3 79 79 WNW 14 22 30.16 1022 10 16.0934 0 0
2:53 am 02:53 Clear 32 0 26 -3.3 79 79 WNW 15 24 30.14 1021 10 16.0934 0 0
3:53 am 03:53 Clear 31 -0.6 25 -3.9 79 79 undefined N/A 30.16 1021 10 16.0934 0 0
4:53 am 04:53 Clear 30 -1.1 25 -3.9 82 82 WNW 9 15 30.16 1021 10 16.0934 0 0
5:53 am 05:53 Sunny 29 -1.7 24 -4.4 82 82 WNW 8 13 30.17 1022 10 16.0934 0 0
6:53 am 06:53 Sunny 31 -0.6 25 -3.9 79 79 WNW 12 19 30.18 1022 10 16.0934 0 0
7:53 am 07:53 Sunny 34 1.1 27 -2.8 76 76 WNW 12 19 30.2 1023 10 16.0934 0 0
8:53 am 08:53 Sunny 37 2.8 28 -2.2 70 70 W 14 22 30.21 1023 10 16.0934 0 0
9:53 am 09:53 Sunny 42 5.6 28 -2.2 58 58 WNW 16 26 30.21 1023 10 16.0934 0 0
10:09 am 10:09 Mostly Sunny 43 6.1 29 -1.7 58 58 W 12 19 30.18 1022 10 16.0934 0 0
10:53 am 10:53 Sunny 46 7.8 30 -1.1 54 54 W 15 24 30.2 1023 10 16.0934 0 0
11:53 am 11:53 Sunny 50 10 32 0 50 50 WNW 17 28 30.19 1023 10 16.0934 0 0
12:53 pm 12:53 Sunny 52 11.1 26 -3.3 37 37 WNW 20 31 30.2 1023 10 16.0934 0 0
1:53 pm 13:53 Sunny 53 11.7 27 -2.8 37 37 NW 21 33 30.19 1022 10 16.0934 0 0
2:53 pm 14:53 Sunny 54 12.2 26 -3.3 34 34 NNW 16 26 30.19 1022 10 16.0934 0 0
3:53 pm 15:53 Sunny 55 12.8 25 -3.9 31 31 NNW 9 15 30.18 1022 10 16.0934 0 0
4:53 pm 16:53 Sunny 55 12.8 20 -6.7 25 25 NNW 12 19 30.16 1022 10 16.0934 0 0
5:53 pm 17:53 Sunny 54 12.2 19 -7.2 25 25 NNE 3 6 30.16 1021 10 16.0934 0 0
6:53 pm 18:53 Sunny 51 10.6 26 -3.3 38 38 E 7 11 30.16 1021 10 16.0934 0 0
7:53 pm 19:53 Sunny 47 8.3 30 -1.1 52 52 SE 5 7 30.17 1022 10 16.0934 0 0
8:53 pm 20:53 Clear 43 6.1 31 -0.6 63 63 SSE 7 11 30.2 1023 10 16.0934 0 0
9:53 pm 21:53 Clear 40 4.4 30 -1.1 68 68 SE 7 11 30.21 1023 10 16.0934 0 0
10:53 pm 22:53 Clear 37 2.8 31 -0.6 79 79 E 7 11 30.19 1022 10 16.0934 0 0
11:53 pm 23:53 Clear 36 2.2 31 -0.6 82 82 E 3 6 30.17 1022 10 16.0934 0 0

Powered by AerisWeather